Waco, TX

10:19 AM CDT on October 19, 2019 (GMT -0500)
Waco Regional

Weather History for KACT - September, 2019

Change the Weather History Date:

Monday, September 16, 2019

  Actual Average Record
Temperature  
Mean Temperature 85 °F 78 °F  
Max Temperature 98 °F 90 °F 101 °F (1980)
Min Temperature 71 °F 66 °F 51 °F (1993)
Degree Days  
Heating Degree Days 0 0  
Month to date heating degree days 0 0  
Since 1 July heating degree days 0 0  
Cooling Degree Days 20 13  
Month to date cooling degree days 334 247  
Year to date cooling degree days 2575 2442  
Growing Degree Days 34 (Base 50)    
Moisture  
Dew Point 64 °F    
Average Humidity 55    
Maximum Humidity 79    
Minimum Humidity 30    
Precipitation  
Precipitation 0.00 in 0.10 in 2.87 in (1987)
Month to date precipitation 0.17 1.62  
Year to date precipitation 27.66 23.78  
Sea Level Pressure  
Sea Level Pressure 29.97 in    
Wind  
Wind Speed 6 mph (ENE)    
Max Wind Speed 16 mph    
Max Gust Speed 22 mph    
Visibility 10 miles    
Events      
T = Trace of Precipitation, MM = Missing Value Source: NWS Daily Summary

Daily Weather History Graph

Daily Weather History Graph

Search for Another Location

Airport or City:

Astronomy

Sep. 16, 2019 Rise Set
Actual Time 7:13 AM CDT 7:33 PM CDT
Civil Twilight 6:49 AM CDT 7:57 PM CDT
Nautical Twilight 6:20 AM CDT 8:26 PM CDT
Astronomical Twilight 5:51 AM CDT 8:55 PM CDT
Moon 9:16 PM CDT (9/16) 9:15 AM CDT (9/16)
Length of Visible Light 13h 08m
Length of Day
12h 20m
Waning Gibbous, 94% of the Moon is Illuminated
Sep 16
Waning Gibbous
Sep 21
Last Quarter
Sep 28
New
Oct 5
First Quarter
Oct 13
Full

Hourly Weather History & Observations

Time (CDT) Temp. Heat Index Dew Point Humidity Pressure Visibility Wind Dir Wind Speed Gust Speed Precip Events Conditions
12:51 AM 80.1 °F 81.9 °F 64.9 °F 60% 30.00 in 10.0 mi East 3.5 mph - N/A   Clear
1:51 AM 73.9 °F - 66.9 °F 79% 30.00 in 10.0 mi Calm Calm - N/A   Clear
2:51 AM 75.0 °F - 66.0 °F 73% 30.00 in 10.0 mi Calm Calm - N/A   Partly Cloudy
3:51 AM 73.9 °F - 66.9 °F 79% 30.00 in 10.0 mi Calm Calm - N/A   Clear
4:51 AM 73.0 °F - 66.9 °F 81% 30.00 in 10.0 mi NNE 3.5 mph - N/A   Clear
5:51 AM 73.0 °F - 64.9 °F 76% 30.00 in 10.0 mi North 4.6 mph - N/A   Clear
6:51 AM 73.0 °F - 64.9 °F 76% 30.01 in 10.0 mi NNW 4.6 mph - N/A   Clear
7:51 AM 73.9 °F - 64.9 °F 73% 30.01 in 10.0 mi NNW 5.8 mph - N/A   Clear
8:51 AM 79.0 °F - 66.0 °F 64% 30.02 in 10.0 mi Calm Calm - N/A   Clear
9:51 AM 87.1 °F 89.2 °F 66.0 °F 49% 30.03 in 10.0 mi NNE 4.6 mph - N/A   Partly Cloudy
10:51 AM 91.0 °F 94.3 °F 66.9 °F 45% 30.03 in 10.0 mi Variable 4.6 mph - N/A   Clear
11:51 AM 93.0 °F 95.9 °F 66.0 °F 41% 30.01 in 10.0 mi Variable 4.6 mph - N/A   Mostly Cloudy
12:51 PM 93.0 °F 94.6 °F 64.0 °F 38% 29.99 in 10.0 mi NE 10.4 mph - N/A   Scattered Clouds
1:51 PM 96.1 °F 98.3 °F 64.0 °F 35% 29.97 in 10.0 mi ENE 11.5 mph - N/A   Scattered Clouds
2:51 PM 96.1 °F 97.3 °F 63.0 °F 33% 29.94 in 10.0 mi ESE 11.5 mph - N/A   Scattered Clouds
3:51 PM 93.9 °F 94.8 °F 62.1 °F 35% 29.92 in 10.0 mi East 10.4 mph - N/A   Scattered Clouds
4:51 PM 97.0 °F 97.4 °F 61.0 °F 30% 29.90 in 10.0 mi East 12.7 mph 18.4 mph N/A   Partly Cloudy
5:51 PM 96.1 °F 96.0 °F 60.1 °F 30% 29.90 in 10.0 mi East 11.5 mph - N/A   Partly Cloudy
6:51 PM 93.0 °F 93.0 °F 61.0 °F 34% 29.90 in 10.0 mi ESE 8.1 mph - N/A   Clear
7:51 PM 87.1 °F 87.5 °F 62.1 °F 43% 29.91 in 10.0 mi East 5.8 mph - N/A   Clear
9:51 PM 84.0 °F 84.9 °F 63.0 °F 49% 29.93 in 10.0 mi East 5.8 mph - N/A   Scattered Clouds
10:51 PM 82.9 °F 85.0 °F 66.0 °F 56% 29.94 in 10.0 mi SE 9.2 mph - N/A   Clear
11:51 PM 81.0 °F 83.3 °F 66.9 °F 62% 29.94 in 10.0 mi SE 8.1 mph - N/A   Clear